This demonstration page uses our WeatherBlox Daily Observations layout. Learn more.

39.29038, -76.61219

Hourly Observations for July 22, 2017

Temp ( °F °C ) Dew Point ( °F °C ) Humidity (%) Winds ( mph kmh ) Pressure ( in mb ) Visibility ( mi km ) Precip ( " mm )
12:54 am 00:54 undefined 87 30.6 73 22.8 63 63 undefined N/A 29.88 1012 N/A 0 0
1:54 am 01:54 undefined 86 30 73 22.8 65 65 undefined N/A 29.85 1011 N/A 0 0
2:54 am 02:54 undefined 86 30 72 22.2 63 63 undefined N/A 29.85 1011 N/A 0 0
3:54 am 03:54 undefined 85 29.4 74 23.3 70 70 undefined N/A 29.85 1011 N/A 0 0
4:54 am 04:54 undefined 84 28.9 74 23.3 72 72 undefined N/A 29.85 1011 N/A 0 0
5:54 am 05:54 undefined 83 28.3 73 22.8 72 72 undefined N/A 29.85 1011 N/A 0 0
6:54 am 06:54 undefined 82 27.8 73 22.8 74 74 undefined N/A 29.85 1011 N/A 0 0
7:54 am 07:54 undefined 83 28.3 72 22.2 70 70 undefined N/A 29.88 1012 N/A 0 0
8:54 am 08:54 undefined 85 29.4 72 22.2 65 65 undefined N/A 29.88 1012 N/A 0 0
9:54 am 09:54 undefined 87 30.6 72 22.2 61 61 undefined N/A 29.88 1012 N/A 0 0
10:54 am 10:54 undefined 91 32.8 72 22.2 54 54 undefined N/A 29.88 1012 N/A 0 0
11:54 am 11:54 undefined 92 33.3 70 21.1 49 49 undefined N/A 29.85 1011 N/A 0 0
12:54 pm 12:54 undefined 93 33.9 68 20 44 44 undefined N/A 29.85 1011 N/A 0 0
1:54 pm 13:54 undefined 96 35.6 68 20 40 40 undefined N/A 29.83 1010 N/A 0 0
2:54 pm 14:54 undefined 93 33.9 70 21.1 47 47 undefined N/A 29.83 1010 N/A 0 0
3:54 pm 15:54 undefined 81 27.2 74 23.3 79 79 undefined N/A 29.8 1009 N/A 0 0
4:54 pm 16:54 undefined 81 27.2 72 22.2 74 74 undefined N/A 29.8 1009 N/A 0 0
5:54 pm 17:54 undefined 82 27.8 70 21.1 67 67 undefined N/A 29.77 1008 N/A 0 0
6:54 pm 18:54 undefined 77 25 74 23.3 90 90 undefined N/A 29.77 1008 N/A 0 0
7:54 pm 19:54 undefined 77 25 73 22.8 88 88 undefined N/A 29.77 1008 N/A 0.01 0.254
8:54 pm 20:54 undefined 77 25 73 22.8 88 88 undefined N/A 29.77 1008 N/A 0 0
9:54 pm 21:54 undefined 77 25 73 22.8 88 88 undefined N/A 29.77 1008 N/A 0 0
10:54 pm 22:54 undefined 78 25.6 71 21.7 79 79 undefined N/A 29.77 1008 N/A 0 0
11:54 pm 23:54 undefined 77 25 72 22.2 85 85 undefined N/A 29.77 1008 N/A 0 0

Powered by AerisWeather